Weather History for Knoxville, TN

Change the Weather History Date:

Wednesday, January 2, 2013

  Actual Average Record
Temperature  
Mean Temperature 40 °F 38 °F  
Max Temperature 44 °F 47 °F 70 °F (1952)
Min Temperature 36 °F 30 °F 0 °F (1928)
Degree Days  
Heating Degree Days 25 27  
Month to date heating degree days 49 54  
Since 1 July heating degree days 1409 1487  
Cooling Degree Days 0 0  
Month to date cooling degree days 0 0  
Year to date cooling degree days 0 0  
Moisture  
Dew Point 33 °F    
Average Humidity 81    
Maximum Humidity 92    
Minimum Humidity 70    
Precipitation  
Precipitation 0.03 in 0.13 in 1.98 in (1937)
Month to date precipitation 1.22 0.26  
Year to date precipitation 1.22 0.26  
Snow  
Snow 0.00 in 0.00 in - ()
Month to date snowfall 0.0 0.1  
Since 1 July snowfall T 0.9  
Snow Depth 0.00 in    
Sea Level Pressure  
Sea Level Pressure 30.11 in    
Wind  
Wind Speed 6 mph (North)    
Max Wind Speed 15 mph    
Max Gust Speed 18 mph    
Visibility 8 miles    
Events Rain    
T = Trace of Precipitation, MM = Missing Value Source: NWS Daily Summary

Daily Weather History Graph

Daily Weather History Graph

Search for Another Location

Airport:

Trip Planner

Search our weather history database for the weather conditions in past years. The results will help you decide how hot, cold, wet, or windy it might be!

Date:

Astronomy

Jan. 02, 2013 Rise Set
Actual Time 7:46 AM EST 5:34 PM EST
Civil Twilight 7:17 AM EST 6:02 PM EST
Nautical Twilight 6:46 AM EST 6:34 PM EST
Astronomical Twilight 6:14 AM EST 7:05 PM EST
Moon 10:54 PM EST (1/2) 10:38 AM EST (1/2)
Length of Visible Light 10h 44m
Length of Day
9h 47m
Waning Gibbous, 75% of the Moon is Illuminated
Jan 2
Waning Gibbous
Jan 4
Last Quarter
Jan 11
New
Jan 18
First Quarter
Jan 26
Full

Hourly Weather History & Observations

Time (EST) Temp. Windchill Dew Point Humidity Pressure Visibility Wind Dir Wind Speed Gust Speed Precip Events Conditions
12:14 AM 42.8 °F 36.2 °F 39.2 °F 87% 30.01 in 4.0 mi North 12.7 mph - 0.00 in Rain Light Rain
12:26 AM 42.8 °F 37.5 °F 39.2 °F 87% 30.01 in 4.0 mi North 9.2 mph - 0.00 in   Overcast
12:53 AM 39.9 °F 33.4 °F 37.9 °F 93% 30.03 in 4.0 mi North 10.4 mph - 0.00 in Rain Rain
12:56 AM 39.2 °F 33.6 °F 37.4 °F 93% 30.01 in 2.0 mi North 8.1 mph - 0.00 in Rain Rain
1:53 AM 39.0 °F 34.0 °F 37.0 °F 93% 30.05 in 2.5 mi North 6.9 mph - 0.02 in Rain Light Rain
2:15 AM 39.2 °F 37.0 °F 37.4 °F 93% 30.05 in 3.0 mi NNE 3.5 mph - 0.01 in Rain Light Rain
2:33 AM 39.2 °F 37.0 °F 37.4 °F 93% 30.05 in 3.0 mi East 3.5 mph - 0.01 in Rain Light Rain
2:53 AM 39.0 °F - 37.0 °F 93% 30.06 in 4.0 mi Calm Calm - 0.01 in   Overcast
3:04 AM 39.2 °F - 37.4 °F 93% 30.06 in 4.0 mi Calm Calm - N/A   Overcast
3:09 AM 39.2 °F - 37.4 °F 93% 30.07 in 6.0 mi Calm Calm - N/A   Overcast
3:34 AM 39.2 °F 35.9 °F 35.6 °F 87% 30.04 in 6.0 mi NNE 4.6 mph - N/A   Overcast
3:53 AM 39.0 °F - 36.0 °F 89% 30.06 in 6.0 mi Calm Calm - N/A   Overcast
4:03 AM 39.2 °F 35.0 °F 35.6 °F 87% 30.05 in 10.0 mi North 5.8 mph - N/A   Overcast
4:53 AM 37.9 °F 31.5 °F 34.0 °F 86% 30.07 in 10.0 mi NNW 9.2 mph - N/A   Overcast
5:53 AM 37.9 °F 32.1 °F 34.0 °F 86% 30.09 in 10.0 mi North 8.1 mph - N/A   Overcast
6:53 AM 37.0 °F 31.0 °F 33.1 °F 86% 30.12 in 10.0 mi NNE 8.1 mph - N/A   Overcast
7:53 AM 37.0 °F 31.0 °F 33.1 °F 86% 30.14 in 10.0 mi NNE 8.1 mph - 0.00 in   Overcast
8:33 AM 37.4 °F 31.4 °F 32.0 °F 81% 30.13 in 7.0 mi NNE 8.1 mph - N/A   Overcast
8:53 AM 37.0 °F 31.6 °F 32.0 °F 82% 30.16 in 7.0 mi NNE 6.9 mph - N/A   Overcast
9:07 AM 37.4 °F 32.1 °F 32.0 °F 81% 30.13 in 10.0 mi NNE 6.9 mph - N/A   Overcast
9:18 AM 37.4 °F 30.3 °F 32.0 °F 81% 30.14 in 10.0 mi North 10.4 mph - N/A   Overcast
9:53 AM 37.0 °F 30.4 °F 32.0 °F 82% 30.16 in 10.0 mi NNE 9.2 mph - N/A   Overcast
10:38 AM 37.4 °F 30.3 °F 32.0 °F 81% 30.15 in 10.0 mi North 10.4 mph - N/A   Overcast
10:53 AM 39.0 °F 33.4 °F 32.0 °F 76% 30.16 in 10.0 mi NNE 8.1 mph - N/A   Overcast
11:20 AM 39.2 °F 32.5 °F 32.0 °F 75% 30.16 in 10.0 mi North 10.4 mph - N/A   Overcast
11:53 AM 39.0 °F 32.8 °F 30.9 °F 73% 30.16 in 10.0 mi North 9.2 mph - N/A   Overcast
12:53 PM 39.0 °F 34.8 °F 32.0 °F 76% 30.14 in 10.0 mi North 5.8 mph - N/A   Overcast
1:53 PM 39.0 °F 34.8 °F 32.0 °F 76% 30.12 in 10.0 mi North 5.8 mph - N/A   Overcast
2:53 PM 39.9 °F 35.8 °F 32.0 °F 73% 30.12 in 10.0 mi North 5.8 mph - N/A   Overcast
3:53 PM 39.0 °F 32.8 °F 30.9 °F 73% 30.14 in 10.0 mi North 9.2 mph - N/A   Overcast
4:53 PM 37.9 °F 34.4 °F 30.9 °F 76% 30.14 in 10.0 mi North 4.6 mph - N/A   Overcast
5:53 PM 37.9 °F 35.5 °F 30.9 °F 76% 30.15 in 10.0 mi North 3.5 mph - N/A   Overcast
6:53 PM 37.0 °F 32.4 °F 30.0 °F 76% 30.16 in 10.0 mi North 5.8 mph - N/A   Overcast
7:53 PM 37.0 °F 33.3 °F 30.0 °F 76% 30.17 in 10.0 mi North 4.6 mph - N/A   Overcast
8:53 PM 37.0 °F 33.3 °F 30.9 °F 79% 30.17 in 10.0 mi NNW 4.6 mph - N/A   Overcast
9:53 PM 37.0 °F 34.5 °F 30.0 °F 76% 30.18 in 10.0 mi NNW 3.5 mph - N/A   Overcast
10:53 PM 36.0 °F 30.3 °F 30.0 °F 79% 30.19 in 10.0 mi NNW 6.9 mph - N/A   Overcast
11:53 PM 36.0 °F 33.3 °F 30.0 °F 79% 30.19 in 10.0 mi NNW 3.5 mph - N/A   Overcast